Погода в Ягодном

Россия / Томская область     58°15′20″N   85°13′57″E
темп.,
°C
ветер,
м/с
пор.,
м/с
влажн.,
%
обл.,
%
осадки,
мм/ч
давл.,
гПа
погр.,
м
25 февраля, чт
чт2501:00−22всв6148979 0.0 1015433
04:00−21в51297100 0.9 1011665
07:00−20вюв3897100 1.9 1009501
10:00−20ююз41094100 0.3 1010576
13:00−20юз61189100 0.3 1012866
16:00−19юз61085100 0.1 10141171
19:00−21юз31095100 0.2 1016839
22:00−21юз4992100 0.1 1016956
26 февраля, пт
пт2601:00−22юз3995100 0.1 1017748
04:00−23юз3896100 0.1 1018566
07:00−23юз3896100 0.1 1019589
10:00−24зюз4893100 0.1 1021618
13:00−22зюз4689100 0.1 1023812
16:00−22зюз4688100 0.1 1025973
19:00−25зюз3796100 0.1 1028386
22:00−28з2699100 0.1 1030214
27 февраля, сб
сб2701:00−28зюз3797100 0.1 1031303
04:00−27юз3796100 0.1 1031373
07:00−28юз3895100 0.2 1032389
10:00−28юз3795100 0.1 1033388
13:00−26юз3692100 0.1 1034574
16:00−24юз3691100 0.1 1034636
19:00−26ююз2597100 0.1 1034123
22:00−26юз3896100 0.1 1033439
28 февраля, вс
вс2801:00−26юз3796100 0.1 1033412
04:00−26юз3696100 0.1 1033322
07:00−26ююз3696100 0.1 1033319
10:00−26ююз3696100 0.1 1032297
13:00−23ю2492100 0.1 1031333
16:00−20ююв249197 0.0 1028415
19:00−23вюв349795 0.0 102678
22:00−23вюв2597100 0.0 1023109
1 марта, пн
пн101:00−21в3698100 0.0 1021159
04:00−20всв3698100 0.1 1018200
07:00−19всв3797100 0.3 1017238
10:00−18всв4796100 0.1 1015257
13:00−15всв4794100 0.3 1014331
16:00−14св4894100 0.3 1012399
19:00−16св51094100 0.6 1011418
22:00−17св61295100 0.4 1010440